Weather Roundup
Issued by NWS

Home | Current Version | Previous Version | Text Only | Print | Product List | Glossary On
Versions: 1 2 3 4 5 6 7 8 9 10 11 12 13 14 15 16 17 18 19 20 21 22 23 24 25 26 27 28 29 30 31 32 33 34 35 36 37 38 39 40 41 42 43 44 45 46 47 48 49 50
048
NZUS93 KARX 110859
HRRWXR

CURRENT HOURLY OBSERVATIONS ACROSS
MUCH OF THE UPPER MISSISSIPPI VALLEY
NATIONAL WEATHER SERVICE LA CROSSE WI
300 AM CST THU FEB 11 2016


...SOUTHEAST MINNESOTA...


CITY           SKY/WX    TMP DP  RH WIND       PRES   REMARKS
ROCHESTER      PTCLDY     1  -6  72 W6        30.24R WCI -10
ROCHESTER/MAYO FAIR       6  -1  74 NW6       30.25R WCI  -5
WINONA         CLOUDY     3  -2  78 CALM      30.30R
AUSTIN         PTCLDY     0  -4  85 N3        30.24S
ALBERT LEA     CLOUDY     0  -4  85 CALM      30.25S
DODGE CENTER   CLOUDY     0  -8  71 CALM      30.24R
PRESTON        CLOUDY     2  -5  70 NW6       30.24R WCI  -9
OWATONNA       CLOUDY     0  -6  78 CALM      30.26R
FARIBAULT        N/A     -6  -8  92 CALM      30.27S
$$

...ELSEWHERE IN MINNESOTA...


CITY           SKY/WX    TMP DP  RH WIND       PRES   REMARKS
MINNEAPOLIS    PTCLDY     6  -4  63 CALM      30.29R
INTNL FALLS    CLOUDY   -13 -19  75 CALM      30.24R
DULUTH         CLOUDY    -7 -13  75 NW5       30.20R WCI -18
RED WING       NOT AVBL
REDWOOD FALLS  CLOUDY     5   1  83 CALM      30.28S
MANKATO        CLOUDY     5  -2  72 CALM      30.26F
WORTHINGTON    CLOUDY     9   1  72 NE3       30.23S
FAIRMONT       CLOUDY     3  -2  78 CALM      30.25R
$$

...SOUTHWEST WISCONSIN...


CITY           SKY/WX    TMP DP  RH WIND       PRES   REMARKS
LA CROSSE      CLEAR      0  -6  76 CALM      30.29R
PRAIRIE DU CHI CLEAR      8  -3  61 CALM      30.28R
BOSCOBEL       CLEAR     -1  -6  79 E3        30.28R
LONE ROCK      NOT AVBL
PLATTEVILLE    CLEAR      6  -2  71 N7        30.22R WCI  -6
FORT MC COY    CLOUDY   -10 -14  82 CALM      30.27S
CAMP DOUGLAS   CLEAR     -4  -5  96 NW3       30.24R
VIROQUA        FAIR       1  -4  77 CALM      30.21S
WIS DELLS      CLEAR      1  -6  74 W3        30.23R
$$

...ELSEWHERE IN WISCONSIN...


CITY           SKY/WX    TMP DP  RH WIND       PRES   REMARKS
MILWAUKEE      CLEAR      7  -5  57 NW10      30.20R WCI  -8
MADISON        CLEAR      4  -4  69 NW7       30.23R WCI  -8
GREEN BAY      MOCLDY    -1  -7  75 W7        30.19R WCI -14
EAU CLAIRE     NOT AVBL
BLACK RVR FLS  FAIR     -12 -18  75 CALM      30.26R
MEDFORD        CLOUDY    -8 -10  88 NW3       30.16R
WAUSAU         CLEAR      0  -6  76 NW8       30.17R WCI -14
WIS RAPIDS     PTCLDY    -3  -9  75 NW6       30.23R WCI -15
MARSHFIELD     PTCLDY    -4 -10  75 CALM      30.18R
RICE LAKE      PTCLDY    -7 -11  82 CALM      30.26R
$$

...NORTHEAST IOWA...


CITY           SKY/WX    TMP DP  RH WIND       PRES   REMARKS
WATERLOO       CLOUDY     2  -5  72 NW6       30.28R WCI  -9
DUBUQUE        CLEAR      7  -1  70 N6        30.22R WCI  -3
DECORAH        CLOUDY     3  -4  72 CALM      30.24R
MASON CITY     CLOUDY     0  -6  76 N5        30.26R WCI -10
CHARLES CITY   CLOUDY     0  -8  71 N6        30.26R WCI -12
OELWEIN        CLOUDY     1  -4  78 N5        30.25R WCI  -8
$$

...ELSEWHERE IN IOWA...


CITY           SKY/WX    TMP DP  RH WIND       PRES   REMARKS
DES MOINES     CLOUDY    12   1  61 NE12      30.26R WCI  -2
IOWA CITY      CLOUDY    11   1  64 N6        30.28R WCI   1
FORT DODGE     CLOUDY     9   1  72 N6        30.27R WCI  -1
MARSHALLTOWN   CLOUDY     3  -3  76 N7        30.25R WCI  -9
CEDAR RAPIDS   CLOUDY     5   1  83 NW6       30.25R WCI  -6
$$

...NORTHERN ILLINOIS...


CITY           SKY/WX    TMP DP  RH WIND       PRES   REMARKS
CHICAGO-OHARE  PTCLDY    10   0  63 NW12      30.19R WCI  -5
CHICAGO-MIDWAY CLEAR     13  -1  54 NW10      30.20R WCI   0
MOLINE         PTCLDY    11   2  67 N5        30.25R WCI   3
ROCKFORD       CLEAR      8   0  69 N7        30.24R WCI  -3
PEORIA         CLOUDY    12   3  67 CALM      30.23R
$$

NOTE: "FAIR" INDICATES FEW OR NO CLOUDS BELOW 12,000 FEET WITH NO
SIGNIFICANT WEATHER AND/OR OBSTRUCTIONS TO VISIBILITY. WIND
SPEEDS ARE IN MILES-PER-HOUR.




USA.gov is the U.S. government's official web portal to all federal, state and local government web resources and services.